[[{"header":{"parameterUnit":"m.s-1","parameterCategory":1,"la1":30.2991,"la2":30.254,"lo1":-89.0895,"lo2":-89.0444,"dy":0.0017,"dx":0.0017,"nx":28,"ny":28,"refTime":"2025-07-14T09:00:00:Z","depth":0,"parameterNumber":2,"parameterNumberName":"U-component_of_WINDS"},"data":[0,0,0,0,0,0,0,0,0,0,0,0,0,0,0,0,0,0,0,0,0,0,0,0,0,0,0,0,0,0,0,0,0,0,0,0,0,0,0,0,0,0,0,0,0,0,0,0,0,0,0,0,0,0,0,0,0,0,0.7143,0.7143,0,0.7217,0.7217,0.7218,0.7255,0.7255,0.7255,0.7255,0.7334,0.7336,0.7338,0,0,0,0,0,0,0,0,0,0,0,0,0,0.7036,0.7038,0.7143,0.7144,0.7144,0.7216,0.7217,0.7218,0.7255,0.7255,0.7255,0.7255,0.7333,0.7336,0.7338,0,0,0,0,0,0,0,0,0,0,0,0,0,0.7094,0.7039,0.7142,0.7171,0.7174,0.7216,0.7217,0.7219,0.7255,0.7255,0.7255,0.7255,0.7332,0.7335,0.7339,0.7359,0,0,0.7348,0.735,0,0,0,0,0,0,0,0,0.709,0.7098,0.7166,0.7169,0.7173,0.7226,0.7209,0.7266,0.7255,0.7224,0.7255,0.7255,0.7298,0.7304,0.7318,0.7362,0.7366,0.7349,0.735,0.7352,0.7353,0,0,0,0,0,0,0,0.7086,0.7095,0.7172,0.7167,0.7171,0.7181,0.719,0.722,0.7261,0.7227,0.723,0.7238,0.73,0.7315,0.732,0.7367,0.7348,0.7351,0.7353,0.7355,0.7432,0.7432,0,0,0,0,0,0,0.7077,0.7091,0.717,0.7174,0.7131,0.7183,0.7192,0.7209,0.726,0.7268,0.7238,0.7239,0.731,0.7317,0.7323,0.7351,0.7352,0.7355,0.7357,0.7432,0.7432,0.7432,0,0,0,0,0,0,0.7075,0.7084,0.7167,0.7133,0.7145,0.7185,0.7204,0.7211,0.7226,0.7268,0.7276,0.7245,0.731,0.7319,0.7349,0.7354,0.7356,0.7359,0.7432,0.7432,0.7432,0.7405,0,0,0,0,0,0,0.7072,0.7083,0.709,0.7133,0.7146,0.719,0.7204,0.7212,0.7231,0.7233,0.7278,0.7285,0.7311,0.7345,0.7353,0.7358,0.7362,0.7431,0.7432,0.7432,0.7406,0.7404,0.7403,0,0,0,0,0,0.7068,0.708,0.709,0.7099,0.7156,0.719,0.7198,0.7226,0.7231,0.7239,0.7267,0.7284,0.7352,0.7347,0.7357,0.7364,0.7431,0.7432,0.7432,0.7406,0.7405,0.7403,0,0,0,0,0,0,0.7037,0.7086,0.7098,0.7124,0.7153,0.7196,0.7208,0.7223,0.7252,0.7254,0.7289,0.7298,0.7326,0.7348,0.7342,0.7386,0.7393,0.7396,0.7371,0.7369,0.7368,0.7362,0.7364,0,0,0,0,0,0.7033,0.7056,0.7098,0.7118,0.7131,0.7167,0.7183,0.7202,0.7234,0.7246,0.7276,0.7307,0.7335,0.7354,0.7382,0.7409,0.742,0.7418,0.7417,0.7416,0.7417,0.7434,0.7434,0.7433,0.7433,0.7433,0,0,0.7026,0.7056,0.7068,0.7112,0.7137,0.7161,0.7177,0.7201,0.722,0.725,0.7281,0.7304,0.7341,0.7369,0.7384,0.7389,0.742,0.7416,0.7415,0.7417,0.7434,0.7434,0.7434,0.7433,0.7433,0.7433,0,0,0.7025,0.7049,0.7068,0.7092,0.7129,0.7152,0.7157,0.7198,0.7214,0.7245,0.7268,0.7292,0.734,0.7365,0.7384,0.7393,0.741,0.7402,0.7395,0.7411,0.7411,0.7411,0.7415,0.7416,0.7403,0.7403,0.7403,0,0.7012,0.7048,0.7077,0.71,0.7119,0.7146,0.7167,0.7189,0.7233,0.7246,0.7251,0.7312,0.7339,0.7374,0.7376,0.739,0.7398,0.7397,0.7408,0.7409,0.7409,0.7414,0.7415,0.7402,0.7402,0.7402,0.7402,0,0.703,0.7055,0.7066,0.7107,0.7127,0.7149,0.7182,0.7199,0.7217,0.724,0.7272,0.7305,0.7341,0.7351,0.7368,0.7389,0.7391,0.7401,0.7409,0.7408,0.7412,0.7414,0.74,0.74,0.7401,0.7401,0,0,0.7013,0.7068,0.7072,0.7091,0.7133,0.7154,0.7177,0.7211,0.7226,0.7255,0.7277,0.7317,0.7327,0.7348,0.7369,0.7383,0.7389,0.7392,0.7394,0.7391,0.7414,0.7406,0.7407,0.74,0.74,0.7401,0.7411,0,0.7018,0.706,0.7086,0.7118,0.7142,0.7168,0.7189,0.7217,0.724,0.7264,0.729,0.7318,0.7329,0.7342,0.7357,0.7385,0.7394,0.7384,0.7421,0.7422,0.7411,0.741,0.7401,0.741,0.7413,0.7413,0.7414,0,0.703,0.7058,0.7091,0.7131,0.7142,0.716,0.7193,0.7216,0.7249,0.7265,0.7289,0.731,0.7337,0.7343,0.7381,0.7374,0.7391,0.7407,0.7408,0.7413,0.7418,0.7415,0.7413,0.7414,0.7416,0.7416,0.7416,0,0.7014,0.706,0.7087,0.7102,0.7149,0.7161,0.7181,0.7214,0.7233,0.7263,0.7276,0.7309,0.7327,0.7352,0.7382,0.7383,0.7418,0.7426,0.7432,0.7432,0.7439,0.7438,0.744,0.7449,0.7449,0.7449,0.7449,0,0.7018,0.7038,0.708,0.7096,0.712,0.715,0.7173,0.7196,0.7225,0.7247,0.7272,0.7293,0.733,0.7356,0.7379,0.7408,0.7416,0.743,0.7436,0.7428,0.7426,0.744,0.744,0.7449,0.7449,0.7449,0.7449,0,0.7004,0.7034,0.7064,0.7106,0.7117,0.7132,0.7168,0.7186,0.7209,0.7237,0.7245,0.7283,0.7314,0.7346,0.7389,0.7405,0.7433,0.7441,0.7421,0.7424,0.743,0.7429,0.7441,0.7444,0.745,0.7449,0.7449,0,0.7005,0.7021,0.7064,0.708,0.7099,0.7125,0.7144,0.7175,0.7194,0.7233,0.7246,0.7279,0.7307,0.7356,0.7388,0.742,0.743,0.7432,0.7435,0.7427,0.7431,0.743,0.7432,0.7431,0.743,0.743,0.743,0,0.7003,0.7017,0.7043,0.7074,0.7096,0.7122,0.715,0.7162,0.7199,0.7219,0.725,0.7272,0.7315,0.7347,0.7384,0.7406,0.7425,0.7429,0.7432,0.7424,0.7412,0.7419,0.7418,0.7428,0.7429,0.7429,0.7429,0.7429,0.6998,0.7013,0.7045,0.7074,0.7098,0.7123,0.7141,0.7167,0.7193,0.723,0.7247,0.7278,0.7312,0.7363,0.7385,0.7411,0.7416,0.7421,0.7422,0.7423,0.7422,0.7407,0.7418,0.7418,0.7418,0.7418,0.7418,0,0.6998,0.702,0.7045,0.7082,0.7105,0.7119,0.715,0.7169,0.7196,0.7225,0.7252,0.7288,0.732,0.7354,0.7388,0.7403,0.7412,0.7411,0.741,0.7415,0.7415,0.7408,0.7402,0.7402,0.7402,0.7402,0.7402,0.7402,0.7,0.7027,0.7044,0.7084,0.7106,0.7137,0.7153,0.7177,0.7201,0.724,0.7266,0.7287,0.7319,0.7356,0.7386,0.7395,0.7407,0.7403,0.7415,0.7414,0.7415,0.7416,0.7411,0.7405,0.7405,0.7413,0.7413,0.7414]},{"header":{"parameterUnit":"m.s-1","parameterCategory":1,"la1":30.2991,"la2":30.254,"lo1":-89.0895,"lo2":-89.0444,"dy":0.0017,"dx":0.0017,"nx":28,"ny":28,"refTime":"2025-07-14T09:00:00:Z","depth":0,"parameterNumber":3,"parameterNumberName":"V-component_of_WINDS"},"data":[0,0,0,0,0,0,0,0,0,0,0,0,0,0,0,0,0,0,0,0,0,0,0,0,0,0,0,0,0,0,0,0,0,0,0,0,0,0,0,0,0,0,0,0,0,0,0,0,0,0,0,0,0,0,0,0,0,0,1.2387,1.2387,0,1.234,1.234,1.2339,1.2333,1.2333,1.2334,1.2334,1.2283,1.2281,1.228,0,0,0,0,0,0,0,0,0,0,0,0,0,1.2467,1.2465,1.2388,1.2387,1.2386,1.2341,1.234,1.2339,1.2333,1.2333,1.2334,1.2334,1.2284,1.2282,1.2279,0,0,0,0,0,0,0,0,0,0,0,0,0,1.2427,1.2465,1.2388,1.2378,1.2376,1.2341,1.234,1.2339,1.2333,1.2333,1.2334,1.2335,1.2284,1.2282,1.2279,1.2249,0,0,1.2271,1.227,0,0,0,0,0,0,0,0,1.2429,1.2424,1.238,1.2378,1.2377,1.2343,1.2349,1.2309,1.2332,1.2349,1.2334,1.2335,1.2302,1.2298,1.2288,1.2247,1.2245,1.2271,1.2269,1.2268,1.2267,0,0,0,0,0,0,0,1.2432,1.2426,1.2369,1.2379,1.2377,1.2374,1.2369,1.2341,1.2322,1.2348,1.2347,1.2342,1.2302,1.229,1.2287,1.2244,1.2271,1.2268,1.2267,1.2266,1.2171,1.2171,0,0,0,0,0,0,1.2437,1.2429,1.237,1.2367,1.2405,1.2372,1.2366,1.2353,1.2323,1.2319,1.2341,1.2342,1.2295,1.229,1.2285,1.2245,1.2268,1.2265,1.2264,1.2172,1.2171,1.217,0,0,0,0,0,0,1.2439,1.2432,1.2372,1.2398,1.239,1.237,1.2355,1.2352,1.2341,1.2318,1.2314,1.2334,1.2295,1.2289,1.2257,1.2243,1.2264,1.2262,1.2173,1.2172,1.2171,1.2167,0,0,0,0,0,0,1.2441,1.2433,1.2423,1.2398,1.2389,1.2347,1.2354,1.2351,1.2337,1.2337,1.231,1.2306,1.2295,1.2261,1.2255,1.224,1.226,1.2175,1.2173,1.2171,1.2168,1.2166,1.2163,0,0,0,0,0,1.2444,1.2424,1.2422,1.2415,1.2376,1.2347,1.2341,1.233,1.2336,1.2324,1.2309,1.2307,1.2246,1.2258,1.2251,1.2235,1.2175,1.2173,1.2171,1.2169,1.2166,1.2163,0,0,0,0,0,0,1.2448,1.2421,1.2419,1.239,1.237,1.2346,1.2331,1.2327,1.2306,1.2306,1.2292,1.2286,1.2255,1.2242,1.2256,1.2202,1.2211,1.2207,1.2212,1.2209,1.2206,1.221,1.2258,0,0,0,0,0,1.2445,1.2425,1.2402,1.2378,1.2369,1.2351,1.2338,1.2331,1.231,1.2302,1.2284,1.2263,1.2239,1.2223,1.22,1.2166,1.2158,1.2151,1.2149,1.2147,1.2144,1.2121,1.2117,1.2164,1.2164,1.2164,0,0,1.244,1.2422,1.241,1.2379,1.2363,1.234,1.2345,1.2322,1.2304,1.2298,1.2267,1.2253,1.2228,1.2195,1.2179,1.2183,1.2129,1.2145,1.2143,1.2141,1.2119,1.2114,1.211,1.2162,1.2162,1.2163,0,0,1.2418,1.2404,1.2381,1.2365,1.2341,1.2329,1.2323,1.2298,1.2288,1.2257,1.2251,1.2229,1.2189,1.217,1.2156,1.2123,1.2119,1.2116,1.2103,1.2081,1.2077,1.2074,1.2059,1.2055,1.2113,1.2113,1.2113,0,1.2414,1.2381,1.237,1.2346,1.2331,1.2324,1.23,1.2284,1.2253,1.2242,1.2247,1.2193,1.2176,1.2137,1.2128,1.2118,1.2108,1.2118,1.2079,1.2075,1.2072,1.2058,1.2053,1.2112,1.2112,1.2112,1.2112,0,1.2375,1.2352,1.2337,1.2307,1.229,1.2266,1.2249,1.2233,1.2226,1.2213,1.2179,1.2158,1.2129,1.2119,1.2113,1.2077,1.208,1.2082,1.209,1.2067,1.2053,1.2048,1.2111,1.2112,1.2112,1.2112,0,0,1.2356,1.2318,1.2312,1.2297,1.2269,1.225,1.2224,1.2196,1.218,1.2159,1.2135,1.2099,1.21,1.2083,1.2074,1.2055,1.2026,1.2059,1.2058,1.2051,1.1982,1.1979,1.1974,1.2024,1.2023,1.2022,1.1983,0,1.2329,1.2284,1.2272,1.2233,1.2209,1.2201,1.2178,1.2157,1.2143,1.2119,1.2104,1.2077,1.2082,1.2071,1.2052,1.2034,1.2012,1.2037,1.1999,1.1998,1.2004,1.1967,1.1965,1.1929,1.1978,1.1977,1.1977,0,1.2292,1.2269,1.2228,1.2199,1.2188,1.2168,1.2139,1.2118,1.2092,1.2083,1.2062,1.2055,1.2024,1.2035,1.1991,1.2008,1.1991,1.198,1.1978,1.1973,1.1985,1.1958,1.1918,1.1912,1.1969,1.1969,1.197,0,1.2279,1.2238,1.2206,1.2194,1.216,1.2146,1.2131,1.2106,1.2088,1.2062,1.205,1.2021,1.2004,1.1981,1.1964,1.1974,1.192,1.193,1.191,1.191,1.1898,1.1899,1.1852,1.1891,1.1891,1.1891,1.1891,0,1.225,1.2224,1.22,1.218,1.215,1.2135,1.2105,1.2089,1.2066,1.2042,1.2033,1.201,1.199,1.1963,1.195,1.1914,1.1907,1.1897,1.1893,1.1897,1.1898,1.1885,1.1886,1.189,1.189,1.189,1.189,0,1.223,1.2213,1.2178,1.2148,1.214,1.2119,1.2092,1.2072,1.2056,1.2025,1.2017,1.1993,1.1961,1.1942,1.1901,1.1892,1.1851,1.185,1.186,1.1858,1.1837,1.1838,1.1779,1.1769,1.1816,1.1816,1.1816,0,1.2212,1.2192,1.2159,1.2142,1.2127,1.2101,1.2082,1.2065,1.2046,1.2013,1.1995,1.1963,1.1936,1.1884,1.1861,1.1829,1.1825,1.1807,1.1821,1.1823,1.1822,1.1822,1.1819,1.1804,1.1804,1.1803,1.1803,0,1.2181,1.2172,1.2147,1.2117,1.2095,1.2071,1.2047,1.2033,1.2011,1.1989,1.1956,1.1935,1.1893,1.1859,1.1824,1.1807,1.18,1.1799,1.1792,1.1794,1.18,1.1794,1.1851,1.18,1.1801,1.1801,1.1801,1.1801,1.216,1.214,1.2113,1.2084,1.2063,1.204,1.2018,1.1999,1.1972,1.1936,1.1927,1.1891,1.1862,1.1815,1.1796,1.1766,1.1769,1.176,1.1757,1.1754,1.1752,1.1806,1.176,1.176,1.176,1.176,1.176,0,1.2126,1.2107,1.2081,1.2046,1.2022,1.2018,1.199,1.1969,1.1938,1.1912,1.1885,1.1845,1.1811,1.1785,1.175,1.173,1.1726,1.1721,1.1722,1.1717,1.1753,1.1761,1.1725,1.1725,1.1725,1.1725,1.1725,1.1725,1.2106,1.2071,1.2059,1.2012,1.1993,1.1959,1.1942,1.1919,1.1898,1.1853,1.1825,1.1809,1.1781,1.1743,1.1711,1.1703,1.169,1.1685,1.1677,1.1711,1.1715,1.1718,1.1726,1.1683,1.1683,1.1643,1.1642,1.1642]}]]